Weather in Shyroke

Ukraine / Dnipropetrovsk Region     47˚40′58″N   33˚16′12″E
temp.,
°C
wind,
m/s
gust,
m/s
humid.,
%
clouds,
%
prec.,
mm/h
press.,
hPa
HPBL,
m
29 november, sun
sun2923:00+7˚wsw2282100 0.1 101953
02:00+4˚sw2375100 0.1 101938
05:00+3˚ssw2277100 0.0 101832
08:00+3˚sw2374100 0.0 101982
11:00+6˚sw2364100 0.0 1020286
14:00+7˚w1163100 0.0 1020352
17:00+5˚nne2275100 0.0 102125
20:00+5˚nne2276100 0.0 102133
30 november, mon
mon3023:00+5˚n2378100 0.0 102172
02:00+5˚nne2388100 0.1 102169
05:00+6˚ene2296100 0.2 102174
08:00+7˚ese3694100 0.5 1022215
11:00+7˚ese4678100 0.0 1022439
14:00+8˚ese4674100 0.0 1022499
17:00+6˚e3583100 0.0 1022142
20:00+5˚e3689100 0.0 1022192
1 december, tue
tue123:00+4˚ene3686100 0.0 1022161
02:00+3˚ne3688100 0.0 1022179
05:00+4˚ene4889100 0.0 1022344
08:00+4˚e5985100 0.0 1023476
11:00+5˚e6874100 0.0 1023808
14:00+4˚ene6869100 0.0 1023851
17:00+4˚ene5970100 0.0 1023725
20:00+4˚e5969100 0.0 1024722
2 december, wed
wed223:00+4˚ene5874100 0.0 1024627
02:00+3˚ene6975100 0.0 1024646
05:00+2˚ene6983100 0.0 1024523
08:00+2˚e5989100 0.1 1024463
11:00+2˚e5786100 0.0 1024476
14:00+3˚ene5881100 0.1 1023473
17:00+4˚e5983100 0.0 1023624
20:00+4˚e61083100 0.2 1024543
3 december, thu
thu323:00+3˚e5988100 0.1 1024457
02:00+4˚e51085100 0.4 1023517
05:00+4˚ese61087100 0.0 1023416
08:00+4˚ese5987100 0.2 1024449
11:00+6˚se6987100 0.3 1024551
14:00+7˚se5882100 0.6 1023605
17:00+6˚se4884100 0.3 1024467
20:00+5˚se4885100 0.4 1024437